Weather Roundup
Issued by NWS Springfield, MO

Home | Current Version | Previous Version | Text Only | Print | Product List | Glossary On
Versions: 1 2 3 4 5 6 7 8 9 10 11 12 13 14 15 16 17 18 19 20 21 22 23 24 25 26 27 28 29 30 31 32 33 34 35 36 37 38 39 40 41 42 43 44 45 46 47 48 49 50
313
NZUS99 KSGF 250407
HRRSGF

HOURLY WEATHER
NATIONAL WEATHER SERVICE SPRINGFIELD MO
1100 PM CDT WED AUG 24 2016

......SGF CWA......

CITY           SKY/WX    TMP DP  RH WIND       PRES   REMARKS
SPRINGFIELD    CLEAR     79  68  69 S13       30.07R
JOPLIN         CLEAR     81  68  64 S14       30.04R
WEST PLAINS    CLEAR     78  70  76 S7        30.12S
ROLLA          CLEAR     78  72  81 S9        30.05S
OSAGE BEACH    CLEAR     81  73  76 S12       30.05R
BRANSON        CLEAR     77  68  73 S5        30.11F

......SURROUNDING SGF CWA......

CITY           SKY/WX    TMP DP  RH WIND       PRES   REMARKS
CHANUTE        CLOUDY    74  69  85 CALM      30.03R
PARSONS        MOCLDY    76  69  79 N6        30.04R
COFFEYVILLE    PTCLDY    84  66  54 S9        30.02R
EMPORIA        CLOUDY    72  71  97 SE3       30.03S
GROVE OK       CLEAR     82  68  61 S12G18    30.06R
ROGERS AR      CLEAR     77  68  73 S10       30.10S
SILOAM SPRINGS CLEAR     79  61  53 S9        30.10F
HARRISON AR    CLEAR     75  68  78 S6        30.12R
NEAR YELLVILLE CLEAR     79  66  65 CALM      30.07S

......KANSAS AND MISSOURI......

CITY           SKY/WX    TMP DP  RH WIND       PRES   REMARKS
KANSAS CTY INT LGT RAIN  72  68  87 NE3       30.04R
DOWNTOWN KC    CLOUDY    73  71  93 E6        30.02S
COLUMBIA       PTCLDY    81  75  82 S10       30.01R
SEDALIA        CLOUDY    76  67  73 NW28G40   30.07R
ST JOSEPH      CLOUDY    70  68  93 CALM      30.02S
ST LOUIS       PTCLDY    85  74  69 SW9       30.01F HX  92
SPIRIT OF STL  CLEAR     82  75  79 S9        29.99F
KIRKSVILLE     LGT RAIN  74  73  97 VRB3      30.05R FOG
WICHITA        CLOUDY    75  68  78 E3        30.02F
TOPEKA         CLOUDY    72  70  93 N5        30.04R
OLATHE         CLOUDY    70  70 100 SE3       30.03F

......TENNESSEE......

CITY           SKY/WX    TMP DP  RH WIND       PRES   REMARKS
MEMPHIS        CLEAR     83  75  77 SW3       30.08F HX  90
NASHVILLE      MOCLDY    77  73  87 S3        30.13F

......ARKANSAS.......

CITY           SKY/WX    TMP DP  RH WIND       PRES   REMARKS
FAYETTEVILLE   CLEAR     75  69  81 S10       30.10S
FT SMITH       CLEAR     75  68  78 NE3       30.06S
LITTLE ROCK    PTCLDY    82  75  79 S5        30.08F

......OKLAHOMA.......

CITY           SKY/WX    TMP DP  RH WIND       PRES   REMARKS
TULSA          PTCLDY    86  67  52 S20       30.00R
PONCA CITY     CLOUDY    72  67  84 NE8       30.01R
MCALESTER      PTCLDY    80  67  64 S5        30.07S
OKLAHOMA CITY  PTCLDY    81  69  67 S15       30.03S

......IOWA............

CITY           SKY/WX    TMP DP  RH WIND       PRES   REMARKS
DES MOINES     CLOUDY    74  68  81 CALM      29.99F
QUAD CITIES    CLOUDY    71  69  93 CALM      29.97F

......ILLINOIS........

CITY           SKY/WX    TMP DP  RH WIND       PRES   REMARKS
QUINCY         CLOUDY    77  75  93 CALM      29.98F
CHICAGO        MOCLDY    77  71  82 SW6       29.97R




USA.gov is the U.S. government's official web portal to all federal, state and local government web resources and services.